| time (UTC) | temp F | wind direction | speed MPH | gust MPH | rain 1hr in | rain 24hr in | rain mn in | humidity % | barometer mb |
| 20260504021544 | 58 | 332 | 0.0 | 0.0 | 0.00 | 0.00 | 0.00 | 57 | 1013.5 |
| 20260504021040 | 59 | 328 | 0.0 | 1.0 | 0.00 | 0.00 | 0.00 | 57 | 1013.6 |
| 20260504020537 | 60 | 345 | 0.0 | 0.0 | 0.00 | 0.00 | 0.00 | 52 | 1013.6 |
| 20260504020034 | 60 | 339 | 0.0 | 2.0 | 0.00 | 0.00 | 0.00 | 54 | 1013.5 |
| 20260504015530 | 61 | 347 | 0.0 | 0.0 | 0.00 | 0.00 | 0.00 | 52 | 1013.6 |
| 20260504015026 | 62 | 338 | 0.0 | 0.0 | 0.00 | 0.00 | 0.00 | 51 | 1013.5 |
| 20260504014522 | 63 | 337 | 0.0 | 0.0 | 0.00 | 0.00 | 0.00 | 46 | 1013.5 |
| 20260504014020 | 64 | 337 | 0.0 | 0.0 | 0.00 | 0.00 | 0.00 | 49 | 1013.5 |
| 20260504013518 | 65 | 317 | 1.0 | 1.0 | 0.00 | 0.00 | 0.00 | 47 | 1013.5 |
| 20260504013015 | 68 | 328 | 0.0 | 2.0 | 0.00 | 0.00 | 0.00 | 46 | 1013.5 |
| 20260504012512 | 69 | 359 | 1.0 | 1.0 | 0.00 | 0.00 | 0.00 | 34 | 1013.5 |
| 20260504012010 | 72 | 323 | 1.0 | 2.0 | 0.00 | 0.00 | 0.00 | 40 | 1013.6 |
| 20260504011506 | 72 | 327 | 0.0 | 2.0 | 0.00 | 0.00 | 0.00 | 35 | 1013.6 |
| 20260504011001 | 73 | 335 | 0.0 | 6.0 | 0.00 | 0.00 | 0.00 | 27 | 1013.7 |
| 20260504010458 | 74 | 323 | 3.0 | 7.0 | 0.00 | 0.00 | 0.00 | 26 | 1013.6 |
| 20260504005954 | 73 | 7 | 6.0 | 8.0 | 0.00 | 0.00 | 0.00 | 27 | 1013.7 |
| 20260504005451 | 73 | 45 | 3.0 | 7.0 | 0.00 | 0.00 | 0.00 | 27 | 1013.7 |
| 20260504004948 | 74 | 324 | 0.0 | 2.0 | 0.00 | 0.00 | 0.00 | 36 | 1013.8 |
| 20260504004446 | 74 | 326 | 0.0 | 2.0 | 0.00 | 0.00 | 0.00 | 28 | 1013.8 |
| 20260504003943 | 76 | 323 | 0.0 | 1.0 | 0.00 | 0.00 | 0.00 | 24 | 1013.8 |
| 20260504003439 | 76 | 330 | 0.0 | 2.0 | 0.00 | 0.00 | 0.00 | 24 | 1013.8 |
| 20260504002936 | 75 | 326 | 0.0 | 1.0 | 0.00 | 0.00 | 0.00 | 25 | 1013.9 |
| 20260504002433 | 74 | 299 | 2.0 | 2.0 | 0.00 | 0.00 | 0.00 | 26 | 1013.8 |
| 20260504001930 | 75 | 283 | 2.0 | 3.0 | 0.00 | 0.00 | 0.00 | 25 | 1013.9 |
| 20260504001427 | 75 | 331 | 1.0 | 3.0 | 0.00 | 0.00 | 0.00 | 25 | 1013.9 |
| 20260504000924 | 75 | 332 | 1.0 | 7.0 | 0.00 | 0.00 | 0.00 | 26 | 1013.9 |
| 20260504000423 | 74 | 3 | 1.0 | 8.0 | 0.00 | 0.00 | 0.00 | 26 | 1014.1 |
| 20260503235918 | 75 | 348 | 1.0 | 3.0 | 0.00 | 0.00 | 0.00 | 25 | 1014.2 |
| 20260503235416 | 76 | 345 | 5.0 | 6.0 | 0.00 | 0.00 | 0.00 | 24 | 1014.2 |
| 20260503234914 | 76 | 345 | 0.0 | 5.0 | 0.00 | 0.00 | 0.00 | 24 | 1014.2 |
| 20260503234411 | 76 | 343 | 4.0 | 6.0 | 0.00 | 0.00 | 0.00 | 23 | 1014.3 |
| 20260503233909 | 77 | 337 | 1.0 | 3.0 | 0.00 | 0.00 | 0.00 | 24 | 1014.1 |
| 20260503233405 | 76 | 342 | 1.0 | 6.0 | 0.00 | 0.00 | 0.00 | 24 | 1014.2 |
| 20260503232901 | 77 | 359 | 1.0 | 3.0 | 0.00 | 0.00 | 0.00 | 25 | 1014.2 |
| 20260503232359 | 76 | 307 | 1.0 | 2.0 | 0.00 | 0.00 | 0.00 | 24 | 1014.4 |
| 20260503231856 | 76 | 246 | 3.0 | 8.0 | 0.00 | 0.00 | 0.00 | 24 | 1014.4 |
| 20260503231353 | 76 | 322 | 1.0 | 2.0 | 0.00 | 0.00 | 0.00 | 24 | 1014.3 |
| 20260503230849 | 76 | 307 | 2.0 | 6.0 | 0.00 | 0.00 | 0.00 | 24 | 1014.3 |
| 20260503230346 | 77 | 22 | 4.0 | 8.0 | 0.00 | 0.00 | 0.00 | 23 | 1014.6 |
| 20260503225844 | 78 | 340 | 3.0 | 5.0 | 0.00 | 0.00 | 0.00 | 24 | 1014.7 |
| 20260503225340 | 76 | 274 | 2.0 | 3.0 | 0.00 | 0.00 | 0.00 | 24 | 1014.6 |
| 20260503224836 | 76 | 264 | 4.0 | 8.0 | 0.00 | 0.00 | 0.00 | 23 | 1014.7 |
| 20260503224334 | 76 | 308 | 0.0 | 0.0 | 0.00 | 0.00 | 0.00 | 23 | 1014.6 |
| 20260503223831 | 77 | 314 | 2.0 | 3.0 | 0.00 | 0.00 | 0.00 | 24 | 1014.9 |
| 20260503223329 | 77 | 321 | 0.0 | 8.0 | 0.00 | 0.00 | 0.00 | 24 | 1014.9 |
| 20260503222824 | 76 | 315 | 5.0 | 6.0 | 0.00 | 0.00 | 0.00 | 24 | 1014.9 |
| 20260503222323 | 76 | 9 | 4.0 | 7.0 | 0.00 | 0.00 | 0.00 | 24 | 1014.9 |
| 20260503221820 | 76 | 316 | 3.0 | 7.0 | 0.00 | 0.00 | 0.00 | 25 | 1014.8 |
| 20260503221319 | 77 | 326 | 2.0 | 11.0 | 0.00 | 0.00 | 0.00 | 24 | 1015.2 |
| 20260503220815 | 76 | 16 | 2.0 | 6.0 | 0.00 | 0.00 | 0.00 | 26 | 1014.9 |
| 20260503220312 | 74 | 337 | 0.0 | 1.0 | 0.00 | 0.00 | 0.00 | 26 | 1015.3 |
| 20260503215808 | 74 | 356 | 0.0 | 2.0 | 0.00 | 0.00 | 0.00 | 27 | 1015.2 |
| 20260503215306 | 74 | 20 | 0.0 | 2.0 | 0.00 | 0.00 | 0.00 | 25 | 1015.3 |
| 20260503214804 | 73 | 16 | 1.0 | 3.0 | 0.00 | 0.00 | 0.00 | 28 | 1015.5 |
| 20260503214300 | 74 | 356 | 2.0 | 5.0 | 0.00 | 0.00 | 0.00 | 26 | 1015.3 |
| 20260503213758 | 76 | 321 | 3.0 | 5.0 | 0.00 | 0.00 | 0.00 | 26 | 1015.4 |
| 20260503213255 | 77 | 358 | 3.0 | 3.0 | 0.00 | 0.00 | 0.00 | 22 | 1015.5 |
| 20260503212752 | 77 | 343 | 2.0 | 7.0 | 0.00 | 0.00 | 0.00 | 23 | 1015.5 |
| 20260503212250 | 76 | 294 | 2.0 | 3.0 | 0.00 | 0.00 | 0.00 | 23 | 1015.7 |
| 20260503211747 | 75 | 319 | 1.0 | 3.0 | 0.00 | 0.00 | 0.00 | 24 | 1015.6 |
| 20260503211243 | 75 | 57 | 2.0 | 6.0 | 0.00 | 0.00 | 0.00 | 25 | 1015.8 |
| 20260503210738 | 76 | 317 | 2.0 | 8.0 | 0.00 | 0.00 | 0.00 | 25 | 1015.7 |
| 20260503210236 | 75 | 319 | 4.0 | 10.0 | 0.00 | 0.00 | 0.00 | 25 | 1016.1 |
| 20260503205731 | 76 | 10 | 2.0 | 9.0 | 0.00 | 0.00 | 0.00 | 26 | 1015.9 |
| 20260503205228 | 74 | 271 | 3.0 | 7.0 | 0.00 | 0.00 | 0.00 | 25 | 1016.1 |
| 20260503204724 | 73 | 333 | 1.0 | 6.0 | 0.00 | 0.00 | 0.00 | 26 | 1016.2 |
| 20260503204222 | 77 | 314 | 3.0 | 3.0 | 0.00 | 0.00 | 0.00 | 23 | 1016.1 |
| 20260503203719 | 75 | 323 | 2.0 | 5.0 | 0.00 | 0.00 | 0.00 | 24 | 1016.1 |
| 20260503203217 | 74 | 4 | 1.0 | 6.0 | 0.00 | 0.00 | 0.00 | 25 | 1016.1 |
| 20260503202714 | 75 | 342 | 2.0 | 10.0 | 0.00 | 0.00 | 0.00 | 26 | 1016.2 |
| 20260503202212 | 75 | 331 | 2.0 | 6.0 | 0.00 | 0.00 | 0.00 | 25 | 1016.2 |
| 20260503201709 | 75 | 358 | 6.0 | 8.0 | 0.00 | 0.00 | 0.00 | 27 | 1016.3 |
| 20260503201207 | 75 | 328 | 1.0 | 7.0 | 0.00 | 0.00 | 0.00 | 25 | 1016.3 |
| 20260503200703 | 75 | 353 | 0.0 | 1.0 | 0.00 | 0.00 | 0.00 | 24 | 1016.4 |
| 20260503200159 | 75 | 293 | 2.0 | 3.0 | 0.00 | 0.00 | 0.00 | 23 | 1016.4 |
| 20260503195656 | 75 | 316 | 3.0 | 5.0 | 0.00 | 0.00 | 0.00 | 24 | 1016.6 |
| 20260503195153 | 73 | 357 | 3.0 | 6.0 | 0.00 | 0.00 | 0.00 | 27 | 1016.4 |
| 20260503194650 | 73 | 336 | 5.0 | 8.0 | 0.00 | 0.00 | 0.00 | 30 | 1016.7 |
| 20260503194145 | 72 | 10 | 4.0 | 8.0 | 0.00 | 0.00 | 0.00 | 31 | 1016.4 |
| 20260503193643 | 74 | 6 | 1.0 | 2.0 | 0.00 | 0.00 | 0.00 | 30 | 1016.6 |
| 20260503193138 | 73 | 330 | 3.0 | 9.0 | 0.00 | 0.00 | 0.00 | 29 | 1016.8 |
| 20260503192634 | 75 | 332 | 3.0 | 6.0 | 0.00 | 0.00 | 0.00 | 29 | 1016.8 |
| 20260503192130 | 74 | 334 | 4.0 | 8.0 | 0.00 | 0.00 | 0.00 | 30 | 1016.9 |
| 20260503191627 | 73 | 337 | 3.0 | 6.0 | 0.00 | 0.00 | 0.00 | 28 | 1016.8 |
| 20260503191124 | 73 | 346 | 2.0 | 7.0 | 0.00 | 0.00 | 0.00 | 32 | 1016.9 |
| 20260503190621 | 71 | 31 | 0.0 | 5.0 | 0.00 | 0.00 | 0.00 | 29 | 1017.1 |
| 20260503190118 | 71 | 14 | 1.0 | 7.0 | 0.00 | 0.00 | 0.00 | 32 | 1017.2 |
| 20260503185614 | 72 | 337 | 2.0 | 6.0 | 0.00 | 0.00 | 0.00 | 32 | 1017.3 |
| 20260503185114 | 71 | 9 | 5.0 | 9.0 | 0.00 | 0.00 | 0.00 | 29 | 1017.4 |
| 20260503184610 | 73 | 11 | 1.0 | 6.0 | 0.00 | 0.00 | 0.00 | 33 | 1017.5 |
| 20260503184106 | 72 | 344 | 1.0 | 5.0 | 0.00 | 0.00 | 0.00 | 35 | 1017.6 |
| 20260503183603 | 71 | 331 | 0.0 | 2.0 | 0.00 | 0.00 | 0.00 | 32 | 1017.7 |
| 20260503183101 | 70 | 8 | 0.0 | 1.0 | 0.00 | 0.00 | 0.00 | 36 | 1017.7 |
| 20260503182559 | 70 | 9 | 0.0 | 3.0 | 0.00 | 0.00 | 0.00 | 34 | 1017.8 |
| 20260503182057 | 71 | 33 | 1.0 | 3.0 | 0.00 | 0.00 | 0.00 | 34 | 1017.8 |
| 20260503181553 | 71 | 319 | 1.0 | 6.0 | 0.00 | 0.00 | 0.00 | 36 | 1017.9 |
| 20260503181050 | 71 | 341 | 1.0 | 3.0 | 0.00 | 0.00 | 0.00 | 35 | 1017.9 |
| 20260503180547 | 71 | 336 | 3.0 | 3.0 | 0.00 | 0.00 | 0.00 | 36 | 1018.2 |
| 20260503180044 | 70 | 334 | 2.0 | 5.0 | 0.00 | 0.00 | 0.00 | 37 | 1018.4 |
| 20260503175541 | 70 | 339 | 3.0 | 5.0 | 0.00 | 0.00 | 0.00 | 39 | 1018.3 |
| 20260503175039 | 69 | 323 | 3.0 | 5.0 | 0.00 | 0.00 | 0.00 | 34 | 1018.4 |
| 20260503174536 | 69 | 331 | 3.0 | 6.0 | 0.00 | 0.00 | 0.00 | 39 | 1018.6 |
| 20260503174032 | 68 | 304 | 3.0 | 5.0 | 0.00 | 0.00 | 0.00 | 40 | 1018.5 |
| 20260503173527 | 68 | 306 | 3.0 | 6.0 | 0.00 | 0.00 | 0.00 | 40 | 1018.6 |
| 20260503173024 | 68 | 354 | 3.0 | 3.0 | 0.00 | 0.00 | 0.00 | 41 | 1018.6 |
| 20260503172521 | 68 | 341 | 0.0 | 5.0 | 0.00 | 0.00 | 0.00 | 42 | 1018.7 |
| 20260503172018 | 67 | 335 | 0.0 | 2.0 | 0.00 | 0.00 | 0.00 | 45 | 1018.8 |
| 20260503171515 | 67 | 330 | 2.0 | 3.0 | 0.00 | 0.00 | 0.00 | 42 | 1019.1 |
| 20260503171012 | 66 | 326 | 3.0 | 3.0 | 0.00 | 0.00 | 0.00 | 42 | 1018.8 |
| 20260503170508 | 66 | 341 | 2.0 | 5.0 | 0.00 | 0.00 | 0.00 | 43 | 1019.1 |
| 20260503150900 | 48 | 345 | 0.0 | 0.0 | 0.00 | 0.00 | 0.00 | 80 | 1020.4 |
| 20260503150357 | 49 | 345 | 0.0 | 1.0 | 0.00 | 0.00 | 0.00 | 74 | 1020.5 |
| 20260503131250 | 31 | 333 | 0.0 | 0.0 | 0.00 | 0.00 | 0.00 | 99 | 1021.2 |
| 20260503130748 | 31 | 333 | 0.0 | 0.0 | 0.00 | 0.00 | 0.00 | 99 | 1021.2 |
| 20260503130245 | 31 | 333 | 0.0 | 0.0 | 0.00 | 0.00 | 0.00 | 99 | 1021.2 |
| 20260503120211 | 31 | 333 | 0.0 | 0.0 | 0.00 | 0.00 | 0.00 | 99 | 1020.8 |
| 20260503110638 | 33 | 333 | 0.0 | 0.0 | 0.00 | 0.00 | 0.00 | 99 | 1021.1 |
| 20260503110136 | 33 | 333 | 0.0 | 0.0 | 0.00 | 0.00 | 0.00 | 99 | 1020.8 |
| 20260503081452 | 37 | 332 | 0.0 | 0.0 | 0.00 | 0.00 | 0.00 | 96 | 1020.6 |
| 20260503080949 | 37 | 332 | 0.0 | 0.0 | 0.00 | 0.00 | 0.00 | 96 | 1020.5 |
| 20260503080445 | 37 | 332 | 0.0 | 0.0 | 0.00 | 0.00 | 0.00 | 96 | 1020.5 |
| 20260503072922 | 39 | 331 | 0.0 | 0.0 | 0.00 | 0.00 | 0.00 | 94 | 1020.5 |
| 20260503072419 | 39 | 331 | 0.0 | 0.0 | 0.00 | 0.00 | 0.00 | 94 | 1020.5 |
| 20260503071916 | 39 | 331 | 0.0 | 0.0 | 0.00 | 0.00 | 0.00 | 94 | 1020.6 |
| 20260503071413 | 39 | 330 | 0.0 | 0.0 | 0.00 | 0.00 | 0.00 | 93 | 1020.6 |
| 20260503070909 | 40 | 333 | 0.0 | 0.0 | 0.00 | 0.00 | 0.00 | 93 | 1020.3 |
| 20260503070406 | 40 | 332 | 0.0 | 0.0 | 0.00 | 0.00 | 0.00 | 93 | 1020.4 |
| 20260503060332 | 43 | 343 | 0.0 | 0.0 | 0.00 | 0.00 | 0.00 | 88 | 1020.3 |
| 20260503054820 | 44 | 333 | 0.0 | 0.0 | 0.00 | 0.00 | 0.00 | 87 | 1020.3 |
| 20260503054316 | 44 | 334 | 0.0 | 0.0 | 0.00 | 0.00 | 0.00 | 86 | 1020.2 |
| 20260503053814 | 44 | 334 | 0.0 | 0.0 | 0.00 | 0.00 | 0.00 | 87 | 1020.1 |
| 20260503053312 | 44 | 334 | 0.0 | 0.0 | 0.00 | 0.00 | 0.00 | 85 | 1020.3 |
| 20260503052808 | 45 | 334 | 0.0 | 0.0 | 0.00 | 0.00 | 0.00 | 85 | 1019.9 |
| 20260503052306 | 45 | 332 | 0.0 | 0.0 | 0.00 | 0.00 | 0.00 | 85 | 1020.1 |
| 20260503051801 | 45 | 333 | 0.0 | 0.0 | 0.00 | 0.00 | 0.00 | 84 | 1020.1 |
| 20260503051258 | 45 | 333 | 0.0 | 0.0 | 0.00 | 0.00 | 0.00 | 85 | 1020.3 |
| 20260503050754 | 45 | 333 | 0.0 | 0.0 | 0.00 | 0.00 | 0.00 | 85 | 1020.2 |
| 20260503050250 | 45 | 333 | 0.0 | 0.0 | 0.00 | 0.00 | 0.00 | 84 | 1020.1 |
| 20260503045748 | 45 | 332 | 0.0 | 0.0 | 0.00 | 0.00 | 0.00 | 83 | 1019.9 |
| 20260503045246 | 46 | 333 | 0.0 | 0.0 | 0.00 | 0.00 | 0.00 | 83 | 1019.9 |
| 20260503044742 | 46 | 333 | 0.0 | 0.0 | 0.00 | 0.00 | 0.00 | 82 | 1019.9 |
| 20260503044239 | 46 | 333 | 0.0 | 0.0 | 0.00 | 0.00 | 0.00 | 81 | 1020.1 |
| 20260503043736 | 46 | 334 | 0.0 | 0.0 | 0.00 | 0.00 | 0.00 | 81 | 1019.9 |
| 20260503043227 | 46 | 327 | 0.0 | 0.0 | 0.00 | 0.00 | 0.00 | 80 | 1019.9 |
| 20260503042723 | 47 | 327 | 0.0 | 0.0 | 0.00 | 0.00 | 0.00 | 79 | 1019.9 |
| 20260503042220 | 47 | 326 | 0.0 | 0.0 | 0.00 | 0.00 | 0.00 | 78 | 1019.8 |
| 20260503041716 | 48 | 332 | 0.0 | 0.0 | 0.00 | 0.00 | 0.00 | 77 | 1019.6 |
| 20260503041214 | 48 | 333 | 0.0 | 0.0 | 0.00 | 0.00 | 0.00 | 76 | 1019.9 |
| 20260503040711 | 48 | 331 | 0.0 | 0.0 | 0.00 | 0.00 | 0.00 | 77 | 1019.8 |
| 20260503040209 | 49 | 337 | 0.0 | 0.0 | 0.00 | 0.00 | 0.00 | 74 | 1019.6 |
| 20260503035705 | 49 | 336 | 0.0 | 0.0 | 0.00 | 0.00 | 0.00 | 74 | 1019.7 |
| 20260503035203 | 50 | 337 | 0.0 | 0.0 | 0.00 | 0.00 | 0.00 | 74 | 1019.5 |
| 20260503034700 | 50 | 337 | 0.0 | 0.0 | 0.00 | 0.00 | 0.00 | 71 | 1019.6 |
| 20260503034157 | 51 | 331 | 0.0 | 0.0 | 0.00 | 0.00 | 0.00 | 72 | 1019.4 |
| 20260503033654 | 51 | 321 | 0.0 | 0.0 | 0.00 | 0.00 | 0.00 | 72 | 1019.4 |
| 20260503033152 | 52 | 333 | 0.0 | 0.0 | 0.00 | 0.00 | 0.00 | 70 | 1019.2 |
| 20260503032650 | 52 | 332 | 0.0 | 0.0 | 0.00 | 0.00 | 0.00 | 71 | 1019.1 |
| 20260503032148 | 52 | 329 | 0.0 | 0.0 | 0.00 | 0.00 | 0.00 | 70 | 1018.8 |
| 20260503031645 | 53 | 328 | 0.0 | 0.0 | 0.00 | 0.00 | 0.00 | 69 | 1018.9 |
| 20260503031143 | 53 | 331 | 0.0 | 0.0 | 0.00 | 0.00 | 0.00 | 67 | 1018.7 |
| 20260503030638 | 54 | 331 | 0.0 | 0.0 | 0.00 | 0.00 | 0.00 | 65 | 1018.7 |
| 20260503030135 | 55 | 332 | 0.0 | 0.0 | 0.00 | 0.00 | 0.00 | 65 | 1018.5 |
| 20260503025632 | 55 | 331 | 0.0 | 0.0 | 0.00 | 0.00 | 0.00 | 65 | 1018.4 |
| 20260503025130 | 56 | 330 | 0.0 | 0.0 | 0.00 | 0.00 | 0.00 | 64 | 1018.5 |
| 20260503024626 | 56 | 330 | 0.0 | 0.0 | 0.00 | 0.00 | 0.00 | 63 | 1018.4 |
| 20260503024123 | 57 | 336 | 0.0 | 0.0 | 0.00 | 0.00 | 0.00 | 60 | 1018.4 |
| 20260503023621 | 58 | 336 | 0.0 | 0.0 | 0.00 | 0.00 | 0.00 | 60 | 1018.4 |
| 20260503023118 | 58 | 321 | 0.0 | 0.0 | 0.00 | 0.00 | 0.00 | 58 | 1018.3 |
| 20260503022613 | 59 | 329 | 0.0 | 0.0 | 0.00 | 0.00 | 0.00 | 58 | 1018.4 |
| 20260503022108 | 61 | 329 | 0.0 | 0.0 | 0.00 | 0.00 | 0.00 | 55 | 1018.2 |